Laredo, TX

3:53 PM CDT en Julio 15, 2018 (GMT -0500)
Laredo International

Tiempo Historia de KLRD - Mayo, 2018

Change the Weather History Date:

Jueves, Mayo 17, 2018

  Actual Average Record
Temperature  
Temperatura media 88 ° F 83 ° F  
Temperatura máxima 103 ° F 94 ° F 106 ° F (1995)
Temperatura mínima 73 ° F 72 ° F 53 ° F (1970)
Degree Days  
Grados día de calefacción 0 0  
Month to date heating degree days 0 0  
Since 1 July heating degree days 845 926  
Cooling Degree Days 23 18  
Month to date cooling degree days 322 274  
Year to date cooling degree days 1036 874  
Growing Degree Days 38 (Base 50)    
Moisture  
Punto de rocío 62 ° F    
Average Humidity 47    
Maximum Humidity 79    
Minimum Humidity 23    
Precipitación  
Precipitación 0.00 pul 0.09 pul 2.07 pul (1984)
Month to date precipitation 0.02 1.36  
Year to date precipitation 2.48 5.74  
Presión al nivel del mar  
Presión al nivel del mar 29.83 pul    
Viento  
Velocidad del viento 11 mph (SE)    
Velocidad máxima del viento 18 mph    
Max Gust Speed 24 mph    
Visibilidad 10 Millas    
Eventos      
T = Trace of Precipitation, MM = Missing Value Source: NWS Daily Summary

Daily Weather History Graph

Daily Weather History Graph

Search for Another Location

Airport or City:

Astronomía

May. 17, 2018 Salida Puesta
Hora real 6:47 AM CDT 8:20 PM CDT
Crepúsculo civil 6:22 AM CDT 8:46 PM CDT
Crepúsculo náutico 5:51 AM CDT 9:17 PM CDT
Crepúsculo astronómico 5:20 AM CDT 9:48 PM CDT
Luna 8:53 AM CDT (5/17) 10:54 PM CDT (5/17)
Horas de luz 14h 24m
Horas de luz
13h 32m
Creciente, 7% of the Moon is Illuminated
May 17
Creciente
May 21
Cuarto creciente
May 29
Luna llena
Jun 6
Cuarto menguante
Jun 13
Nueva

Hourly Weather History & Observations

Hora (CDT) Temp. Índice de calor Punto de rocío Humedad Presión Visibilidad Wind Dir Velocidad del viento Velocidad de ráfagas Precip Eventos Condiciones
12:56 AM 82.0 ° F 84.5 ° F 66.9 ° F 60% 29.87 pul 10.0 mi SE 12.7 mph - N/A   Despejado
1:56 AM 80.1 ° F 81.5 ° F 63.0 ° F 56% 29.88 pul 10.0 mi SSE 13.8 mph - N/A   Despejado
2:56 AM 78.1 ° F - 61.0 ° F 56% 29.86 pul 10.0 mi SSE 11.5 mph - N/A   Despejado
3:56 AM 75.9 ° F - 63.0 ° F 64% 29.86 pul 10.0 mi ESE 6.9 mph - N/A   Despejado
4:56 AM 75.0 ° F - 63.0 ° F 66% 29.86 pul 10.0 mi SE 9.2 mph - N/A   Despejado
5:56 AM 73.9 ° F - 64.9 ° F 73% 29.85 pul 10.0 mi SE 9.2 mph - N/A   Despejado
6:56 AM 73.0 ° F - 66.9 ° F 81% 29.86 pul 10.0 mi SE 10.4 mph - N/A   Despejado
7:56 AM 75.0 ° F - 68.0 ° F 79% 29.88 pul 10.0 mi SE 11.5 mph - N/A   Despejado
8:56 AM 79.0 ° F - 69.1 ° F 72% 29.89 pul 10.0 mi SSE 9.2 mph - N/A   Despejado
9:56 AM 82.9 ° F 87.0 ° F 70.0 ° F 65% 29.89 pul 10.0 mi Sur 9.2 mph - N/A   Despejado
10:56 AM 87.1 ° F 92.8 ° F 71.1 ° F 59% 29.89 pul 10.0 mi Sur 9.2 mph - N/A   Despejado
11:56 AM 91.0 ° F 94.3 ° F 66.9 ° F 45% 29.88 pul 10.0 mi SSE 11.5 mph 17.3 mph N/A   Despejado
12:56 PM 96.1 ° F 97.3 ° F 63.0 ° F 33% 29.86 pul 10.0 mi SE 13.8 mph 17.3 mph N/A   Despejado
1:56 PM 97.0 ° F 97.8 ° F 62.1 ° F 31% 29.84 pul 10.0 mi SSE 10.4 mph 20.7 mph N/A   Despejado
2:56 PM 100.0 ° F 100.7 ° F 60.1 ° F 27% 29.82 pul 10.0 mi ESE 10.4 mph 18.4 mph N/A   Despejado
3:56 PM 100.9 ° F 101.0 ° F 59.0 ° F 25% 29.79 pul 10.0 mi ESE 8.1 mph - N/A   Despejado
4:56 PM 102.0 ° F 101.6 ° F 57.9 ° F 23% 29.76 pul 10.0 mi SE 10.4 mph - N/A   Despejado
5:56 PM 102.0 ° F 101.6 ° F 57.9 ° F 23% 29.74 pul 10.0 mi SSE 11.5 mph - N/A   Despejado
6:56 PM 100.0 ° F 99.2 ° F 57.0 ° F 24% 29.72 pul 10.0 mi SE 15.0 mph - N/A   Despejado
7:56 PM 97.0 ° F 95.3 ° F 55.9 ° F 25% 29.74 pul 10.0 mi SE 13.8 mph - N/A   Despejado
8:56 PM 93.9 ° F 92.0 ° F 55.0 ° F 27% 29.75 pul 10.0 mi SE 15.0 mph - N/A   Despejado
9:56 PM 90.0 ° F 87.5 ° F 53.1 ° F 28% 29.76 pul 10.0 mi SE 13.8 mph - N/A   Despejado
10:56 PM 87.1 ° F 85.9 ° F 57.0 ° F 36% 29.79 pul 10.0 mi SE 18.4 mph 24.2 mph N/A   Despejado
11:56 PM 84.0 ° F 84.5 ° F 62.1 ° F 47% 29.80 pul 10.0 mi SE 10.4 mph - N/A   Despejado